Location: Marcé
(47.5801°N, 0.3280°W)
Time: 16:35:59
(UTC+02:00)

ACS3 Solar Sail - Pass Details

Date: 20 June 2024
Orbit: 992 x 1023 km, 97.4° (Epoch: 11 July)

Event Time Altitude Azimuth Distance (km) Brightness Sun altitude
Exits shadow 23:51:24 12° 182° (S) 2,648 6.6 -13.0°
Maximum altitude 23:57:14 60° 261° (W) 1,130 5.2 -13.5°
Drops below altitude 10° 00:03:24 10° 341° (NNW) 2,769 8.6 -14.0°
Sets 00:05:56 0° 345° (NNW) 3,721 9.5 -14.2°
